sat.trackr.live / text

‹ back to catalog

STARLINK-35583

NORAD 66611 · 2025-270Z

PAYLOAD ACTIVE UNKNOWN

§ Identity

Operator
Country
US
Launch date
2025-11-22
Launch site
AFETR
Launch vehicle
Mass (kg)
RCS (m²)

Purposes: comms

External: N2YO · Heavens-Above · Gunter

§ Orbital elements

Epoch: 2026-09-19T09:47:30.081984Z

Period
94.27 min
Inclination
42.9989°
Eccentricity
0.0002158
Mean motion
15.27583741 rev/d
Perigee alt
481.6 km
Apogee alt
484.5 km
Semi-major
6,861.2 km
B*
5.4348e-4
RAAN
42.0611°
Arg perigee
279.0813°
Mean anomaly
80.9794°
Rev number
4,744

§ Raw data

STARLINK-355831 66611U 25270Z   26262.40798706  .00014725  00000+0  54348-3 0  99902 66611  42.9989  42.0611 0002158 279.0813  80.9794 15.27583741 47442

JSON: /api/v1/satellites/66611 · /tle

For live sub-satellite position, see the globe view (requires WebGL).

§ Visibility from observer

Set your observer location to see the next 7 days of passes ≥ 10°. The values pass through the URL so the page stays shareable.

No JS? Fill the form by hand. The geolocation button needs JavaScript.